Miscellaneous Local Product
Issued by NWS Hastings, NE

Home | Current Version | Previous Version | Graphics & Text | Print | Product List | Glossary On
Versions: 1 2 3 4 5 6 7 8 9 10 11 12 13 14 15 16 17 18 19 20 21 22 23 24 25 26 27 28 29 30 31 32 33 34 35 36 37 38 39 40 41 42 43 44 45 46 47 48 49 50
000
AXUS43 KGID 271602
MISGRI

GID CWA HOURLY WEATHER ROUNDUP
NATIONAL WEATHER SERVICE HASTINGS NE
1000 AM CST FRI FEB 27 2015

NOTE: "FAIR" INDICATES FEW OR NO CLOUDS BELOW 12,000 FEET WITH NO
SIGNIFICANT WEATHER AND/OR OBSTRUCTIONS TO VISIBILITY.

...SOUTH CENTRAL NEBRASKA...

CITY           SKY/WX    TMP DP  RH WIND       PRES   REMARKS
GRAND ISLAND   FAIR       9   0  67 CALM      30.53F
HASTINGS       SUNNY      9  -1  64 CALM      30.51S
KEARNEY        SUNNY     10   0  61 SE6       30.48F WCI   1
ORD            SUNNY      9  -1  64 CALM      30.47F
YORK           SUNNY      7   0  72 CALM      30.56F
AURORA         SUNNY      9  -1  66 CALM      30.53F
LEXINGTON      CLOUDY    11   1  62 S7        30.44F WCI   0
HOLDREGE       MOSUNNY    9  -1  62 SE6       30.47S WCI   0
HEBRON         MOSUNNY   10   2  71 CALM      30.59S

...NEBRASKA PANHANDLE...

CITY           SKY/WX    TMP DP  RH WIND       PRES   REMARKS
CHADRON        SUNNY     12   3  67 S16       30.20F WCI  -5
ALLIANCE       CLOUDY    10   5  80 S20       30.18F WCI  -9
SCOTTSBLUFF    CLOUDY    11   4  73 SE15      30.16F WCI  -5
SIDNEY         CLOUDY     9   4  80 S16       30.17S HAZE    WCI  -8

...WESTERN AND NORTH CENTRAL NEBRASKA...

CITY           SKY/WX    TMP DP  RH WIND       PRES   REMARKS
VALENTINE      SUNNY     10   1  67 S10       30.37F WCI  -4
AINSWORTH      SUNNY     10   1  67 S13       30.38F WCI  -5
ONEILL         SUNNY     11   4  74 SW7       30.48S WCI   0
BROKEN BOW     MOSUNNY   11   0  61 S9        30.42F WCI  -2
IMPERIAL       CLOUDY    12   3  67 SE15      30.31F WCI  -4
NORTH PLATTE   CLOUDY    10   0  63 SE8       30.38F WCI  -2
MCCOOK         PTSUNNY   15   1  53 SE14      30.42S WCI   0

...EASTERN NEBRASKA...

CITY           SKY/WX    TMP DP  RH WIND       PRES   REMARKS
NORFOLK        SUNNY      8  -2  63 SW6       30.54F WCI  -2
SO SIOUX CITY  SUNNY      6  -2  69 W3        30.61F
TEKAMAH        SUNNY      5  -3  69 CALM      30.63F
COLUMBUS       SUNNY      7  -8  51 W5        30.59F WCI  -2
ALBION         SUNNY      9   0  66 SW6       30.53F WCI  -1
OMAHA EPPLEY   SUNNY      6  -1  73 NW5       30.64S WCI  -3
OFFUTT AFB     SUNNY      7  -3  64 VRB2      30.63S
MILLARD        SUNNY      6  -3  66 NW3       30.63F
LINCOLN        SUNNY      8  -1  66 CALM      30.63S
NEBRASKA CITY  SUNNY      7  -3  61 CALM      30.62S
BEATRICE       SUNNY      7  -2  69 CALM      30.62R
FALLS CITY     MOSUNNY    8   0  69 CALM      30.65S

...NORTHERN KANSAS...

CITY           SKY/WX    TMP DP  RH WIND       PRES   REMARKS
GOODLAND       LGT SNOW  12   8  84 S20       30.28S FOG     WCI  -6
HILL CITY      CLOUDY    13   0  56 S7        30.48F WCI   3
NORTON         CLOUDY    12   0  57 SE10      30.45  WCI  -1
PHILLIPSBURG   SUNNY     14   1  57 SE7       30.53S WCI   4
HAYS           CLOUDY    12  -6  44 SE10      30.51S WCI  -1
RUSSELL        CLOUDY    12   1  61 E5        30.52F WCI   4
CONCORDIA      PTSUNNY   10   3  73 S3        30.58S
SALINA         PTSUNNY   13   1  59 E5        30.61S WCI   5
TOPEKA         MOSUNNY   11   1  64 E3        30.66F



USA.gov is the U.S. government's official web portal to all federal, state and local government web resources and services.